User: anonymous   Login
Location: Unspecified
(0.0000°N, 0.0000°E)
Time: 15:50:07
(UTC+00:00)
Language:

OBJECT AA - Orbit

View from above orbital plane
View from above orbital plane
View from above satellite
View from above satellite

Ground track
Ground track

The orbit data is extracted from the following two-line orbital elements,

1 43135U 18004AA  21334.05646147  .00005516  00000-0  20630-3 0  9996
2 43135  97.3965  47.7379 0007992 353.3502   6.7630 15.27713008215983
Epoch (UTC): 30 November 2021 01:21:18
Eccentricity: 0.0007992
inclination: 97.3965°
perigee height: 477 km
apogee height: 488 km
right ascension of ascending node: 47.7379°
argument of perigee: 353.3502°
revolutions per day: 15.27713008
mean anomaly at epoch: 6.7630°
orbit number at epoch: 21598

The dashed part of the orbit path shows where the satellite is in the earth's shadow,  

DLR